Regional & State Weather Roundups


851 
ASUS41 KLWX 041710
RWRLWX
REGIONAL WEATHER ROUNDUP
NATIONAL WEATHER SERVICE BALTIMORE MD/WASHINGTON DC
100 PM EDT WED MAY 04 2016
Note: "FAIR" indicates few or no clouds below 12,000 feet
with no significant weather and/or obstructions to visibility.
 TC=TEMPERATURE CELSIUS
 * =Non NWS site. Station does not report precipitation (e.g. rain,
    snow, etc.), thunder, or fog.
DCZ001-MDZ009-015-VAZ040>042-051-053>054-041800-
WASHINGTON METRO
  
CITY           SKY/WX    TMP DP  RH WIND       PRES   REMARKS
WASHINGTON NAT CLOUDY    59  52  77 NE5       29.71F                  
DULLES         CLOUDY    58  53  84 SE3       29.69F                  
ANDREWS AFB    CLOUDY    56  52  85 VRB2      29.69F                  
FT BELVOIR     CLOUDY    58  52  79 N2        29.69F                  
QUANTICO       CLOUDY    59  53  80 E5        29.70F                  
COLLEGE PARK*  CLOUDY    55  50  82 E3        29.71S                  
LEESBURG*      CLOUDY    59  55  88 CALM      29.70F                  
GAITHERSBURG*  CLOUDY    55  50  82 CALM      29.74F                  
$$
MDZ006>007-011-014-041800-
BALTIMORE METRO
  
CITY           SKY/WX    TMP DP  RH WIND       PRES   REMARKS
BWI AIRPORT    CLOUDY    54  50  86 E6        29.71S                  
MD SCIENCE CTR   N/A     56  50  80 MISG      29.73S                  
MARTIN STATE   CLOUDY    55  54  94 NE8       29.73F                  
ANNAPOLIS      CLOUDY    54  51  90 NE7       29.71S                  
FORT MEADE*    CLOUDY    54  50  87 E3        29.74S                  
$$
MDZ012-015-019>023-041800-
MARYLAND EASTERN SHORE
  
CITY           SKY/WX    TMP DP  RH WIND       PRES   REMARKS
OCEAN CITY     CLOUDY    52  51  97 NE14      29.67F FOG              
SALISBURY      LGT RAIN  55  53  93 N10       29.67F                  
CAMBRIDGE*     CLOUDY    54  52  94 NE3       29.69F                  
EASTON*        CLOUDY   N/A N/A N/A NE6       29.74F                  
$$
MDZ017>025-041800-
SOUTHERN MARYLAND
  
CITY           SKY/WX    TMP DP  RH WIND       PRES   REMARKS
PATUXENT RIVER DRIZZLE   56  52  86 NE9       29.69F FOG              
ST INIGOES     CLOUDY    57  53  86 NE6       29.68F                  
LEONARDTOWN*   CLOUDY    54  52  94 N3        29.70F                  
$$
MDZ003>005-041800-
NORTH CENTRAL MARYLAND
  
CITY           SKY/WX    TMP DP  RH WIND       PRES   REMARKS
FREDERICK*     CLOUDY    55  55 100 MISG      29.73F                  
HAGERSTOWN APT CLOUDY    58  52  80 E7        29.69F                  
WESTMINSTER*   CLOUDY    55  36  47 E5        29.71S                  
$$
MDZ501>502-041800-
WESTERN MARYLAND
  
CITY           SKY/WX    TMP DP  RH WIND       PRES   REMARKS
OAKLAND*       CLOUDY    46  45  93 CALM      29.70S                  
CUMBERLAND*    CLOUDY    63  45  51 SW9       29.72F                  
$$
VAZ025>031-041800-
SHENANDOAH VALLEY
  
CITY           SKY/WX    TMP DP  RH WIND       PRES   REMARKS
WINCHESTER*    CLOUDY    59  52  77 E12       29.67F                  
FRONT ROYAL*   CLOUDY    61  52  72 SE5       29.66F                  
LURAY*         LGT RAIN  61  50  67 N5        29.66F                  
NEW MARKET*    CLOUDY    61  47  59 CALM      29.66S                  
STAUNTON*      LGT RAIN  57  52  84 NW7       29.69S                  
WAYNESBORO*    PTSUNNY   64  43  47 SW10      29.66F                  
$$
WVZ021-048>050-054>055-041800-
EASTERN WEST VIRGINIA PANHANDLE
  
CITY           SKY/WX    TMP DP  RH WIND       PRES   REMARKS
MARTINSBURG    CLOUDY    60  53  77 E7        29.67F                  
PETERSBURG*    FAIR      61  51  68 CALM      29.68F                  
$$
VAZ036>039-050-041800-
CENTRAL FOOTHILLS
  
CITY           SKY/WX    TMP DP  RH WIND       PRES   REMARKS
CHARLOTTESVILL PTSUNNY   59  55  87 SE5       29.67F FOG              
CULPEPER*      CLOUDY    64  56  76 E3        29.68F                  
ORANGE*        RAIN      61  57  88 CALM      29.70F                  
GORDONSVILLE*  CLOUDY    58  53  82 NW5       29.67F HAZE             
WARRENTON*     PTSUNNY   63  53  69 E6        29.69F                  
$$
VAZ055>057-041800-
NORTH AND CENTRAL PIEDMONT
  
CITY           SKY/WX    TMP DP  RH WIND       PRES   REMARKS
FREDERICKSBRG* CLOUDY    60  58  93 CALM      29.68F                  
STAFFORD*      CLOUDY    57  53  88 CALM      29.73F                  
$$
NCZ024-NYZ072-PAZ021-071-VAZ022-071-041800-
OTHER REGIONAL OBSERVATIONS
  
CITY           SKY/WX    TMP DP  RH WIND       PRES   REMARKS
NEW YORK CITY  CLOUDY    50  44  80 E14G24    29.79F                  
PHILADELPHIA   CLOUDY    53  47  79 E13       29.74S                  
PITTSBURGH     CLOUDY    59  40  49 SW6       29.66F                  
ROANOKE        CLOUDY    66  43  43 VRB3      29.69F                  
RICHMOND       PTSUNNY   61  55  81 NE6       29.68F                  
RALEIGH        MOSUNNY   70  50  49 CALM      29.68F                  
$$
ANZ530>537-041800-
MARINE OBSERVATIONS
  
STATION/POSITION TIME  TEMP    WIND        PRES
                       AIR SEA DIR/SP/G
                 (UTC) (F)     (DEG/KT/KT) (MB)
THOMAS PT LIGHT  1700   53 59   30/  7/  8 1007.2F
BALT KEY BRIDGE  1600   53      50/  5/  6 1006.2F
COVE POINT       1600   54      30/  5/  8 1006.3F
LEWISETTA        1600   55 63   30/  3/  4 1005.2F
SOLOMONS ISLAND  1600   55 62   10/  3/  5   N/A
PINEY POINT      1600          340/  5/  6   N/A
$$